| time (UTC) | temp C | wind direction | speed KPH | gust KPH | rain 1hr cm | rain 24hr cm | rain mn cm | humidity % | barometer mb |
| 20260504010035 | 15 | 169 | 0.0 | 0.0 | 0.00 | 0.00 | 0.00 | 41 | 1012.6 |
| 20260504004533 | 15 | 140 | 0.0 | 4.8 | 0.00 | 0.00 | 0.00 | 39 | 1012.6 |
| 20260504003035 | 16 | 192 | 0.0 | 4.8 | 0.00 | 0.00 | 0.00 | 36 | 1012.4 |
| 20260504001535 | 16 | 225 | 0.0 | 0.0 | 0.00 | 0.00 | 0.00 | 33 | 1012.3 |
| 20260504000029 | 17 | 233 | 0.0 | 3.2 | 0.00 | 0.00 | 0.00 | 32 | 1012.5 |
| 20260503234532 | 17 | 242 | 3.2 | 6.4 | 0.00 | 0.00 | 0.00 | 30 | 1012.1 |
| 20260503233030 | 17 | 234 | 1.6 | 8.0 | 0.00 | 0.00 | 0.00 | 29 | 1012.1 |
| 20260503231536 | 17 | 257 | 0.0 | 6.4 | 0.00 | 0.00 | 0.00 | 29 | 1012.1 |
| 20260503230040 | 17 | 278 | 3.2 | 16.1 | 0.00 | 0.00 | 0.00 | 29 | 1012.1 |
| 20260503224530 | 17 | 238 | 4.8 | 16.1 | 0.00 | 0.00 | 0.00 | 29 | 1012.1 |
| 20260503223036 | 17 | 272 | 6.4 | 22.5 | 0.00 | 0.00 | 0.00 | 29 | 1012.4 |
| 20260503221532 | 18 | 271 | 14.5 | 20.9 | 0.00 | 0.00 | 0.00 | 28 | 1012.1 |
| 20260503220042 | 17 | 309 | 6.4 | 19.3 | 0.00 | 0.00 | 0.00 | 30 | 1012.3 |
| 20260503214539 | 17 | 219 | 6.4 | 17.7 | 0.00 | 0.00 | 0.00 | 29 | 1012.5 |
| 20260503213044 | 17 | 318 | 8.0 | 16.1 | 0.00 | 0.00 | 0.00 | 30 | 1012.5 |
| 20260503211532 | 17 | 262 | 8.0 | 22.5 | 0.00 | 0.00 | 0.00 | 31 | 1012.6 |
| 20260503210035 | 17 | 255 | 14.5 | 19.3 | 0.00 | 0.00 | 0.00 | 30 | 1012.5 |
| 20260503204539 | 16 | 269 | 9.7 | 17.7 | 0.00 | 0.00 | 0.00 | 30 | 1012.4 |
| 20260503203041 | 16 | 256 | 14.5 | 25.7 | 0.00 | 0.00 | 0.00 | 31 | 1012.5 |
| 20260503201534 | 16 | 240 | 11.3 | 25.7 | 0.00 | 0.00 | 0.00 | 30 | 1012.8 |
| 20260503200036 | 16 | 247 | 3.2 | 22.5 | 0.00 | 0.00 | 0.00 | 30 | 1012.9 |
| 20260503194534 | 16 | 259 | 12.9 | 37.0 | 0.00 | 0.00 | 0.00 | 31 | 1013.3 |
| 20260503193043 | 16 | 257 | 14.5 | 29.0 | 0.00 | 0.00 | 0.00 | 30 | 1013.6 |
| 20260503191603 | 15 | 252 | 9.7 | 24.1 | 0.00 | 0.00 | 0.00 | 32 | 1013.8 |
| 20260503190039 | 16 | 245 | 4.8 | 17.7 | 0.00 | 0.00 | 0.00 | 34 | 1013.7 |
| 20260503184538 | 15 | 288 | 16.1 | 24.1 | 0.00 | 0.00 | 0.00 | 33 | 1014.0 |
| 20260503183035 | 15 | 9 | 4.8 | 22.5 | 0.00 | 0.00 | 0.00 | 31 | 1014.2 |
| 20260503181545 | 15 | 9 | 14.5 | 25.7 | 0.00 | 0.00 | 0.00 | 33 | 1014.4 |
| 20260503180043 | 15 | 240 | 12.9 | 22.5 | 0.00 | 0.00 | 0.00 | 33 | 1014.6 |
| 20260503174544 | 14 | 272 | 9.7 | 30.6 | 0.00 | 0.00 | 0.00 | 33 | 1014.5 |
| 20260503173035 | 14 | 259 | 11.3 | 25.7 | 0.00 | 0.00 | 0.00 | 33 | 1014.6 |
| 20260503171533 | 14 | 315 | 16.1 | 32.2 | 0.00 | 0.00 | 0.00 | 34 | 1014.6 |
| 20260503081547 | 7 | 302 | 1.6 | 8.0 | 0.00 | 0.00 | 0.00 | 61 | 1012.8 |
| 20260503071544 | 8 | 360 | 8.0 | 24.1 | 0.00 | 0.00 | 0.00 | 56 | 1012.7 |
| 20260503054543 | 9 | 340 | 3.2 | 14.5 | 0.00 | 0.00 | 0.00 | 55 | 1012.0 |
| 20260503053031 | 10 | 342 | 4.8 | 17.7 | 0.00 | 0.00 | 0.00 | 54 | 1012.1 |
| 20260503051529 | 10 | 12 | 12.9 | 20.9 | 0.00 | 0.00 | 0.00 | 53 | 1012.0 |
| 20260503050034 | 10 | 350 | 8.0 | 20.9 | 0.00 | 0.00 | 0.00 | 52 | 1011.6 |
| 20260503044538 | 10 | 5 | 9.7 | 24.1 | 0.00 | 0.00 | 0.00 | 52 | 1011.6 |
| 20260503043042 | 10 | 25 | 9.7 | 37.0 | 0.00 | 0.00 | 0.00 | 51 | 1011.6 |
| 20260503041530 | 11 | 330 | 17.7 | 30.6 | 0.00 | 0.00 | 0.00 | 50 | 1011.6 |
| 20260503040036 | 11 | 24 | 6.4 | 27.4 | 0.00 | 0.00 | 0.00 | 51 | 1011.4 |
| 20260503034536 | 11 | 360 | 8.0 | 24.1 | 0.00 | 0.00 | 0.00 | 51 | 1011.5 |
| 20260503033031 | 11 | 328 | 8.0 | 17.7 | 0.00 | 0.00 | 0.00 | 51 | 1011.2 |
| 20260503031530 | 11 | 334 | 8.0 | 17.7 | 0.00 | 0.00 | 0.00 | 51 | 1011.1 |
| 20260503030037 | 11 | 326 | 6.4 | 22.5 | 0.00 | 0.00 | 0.00 | 51 | 1010.9 |
| 20260503024536 | 12 | 342 | 9.7 | 19.3 | 0.00 | 0.00 | 0.00 | 52 | 1011.1 |
| 20260503023037 | 12 | 360 | 6.4 | 17.7 | 0.00 | 0.00 | 0.00 | 52 | 1011.2 |
| 20260503021532 | 12 | 350 | 6.4 | 14.5 | 0.00 | 0.00 | 0.00 | 51 | 1011.2 |
| 20260503020033 | 12 | 352 | 4.8 | 14.5 | 0.00 | 0.00 | 0.00 | 50 | 1011.2 |
| 20260503014533 | 12 | 18 | 6.4 | 12.9 | 0.00 | 0.00 | 0.00 | 49 | 1011.1 |
| 20260503013038 | 12 | 22 | 6.4 | 9.7 | 0.00 | 0.00 | 0.00 | 48 | 1010.8 |
| 20260503011531 | 12 | 24 | 3.2 | 14.5 | 0.00 | 0.00 | 0.00 | 48 | 1010.7 |